Change the Weather History Date:

Sunday, September 7, 2014

  Actual Average Record
Temperature  
Mean Temperature 76 °F 73 °F  
Max Temperature 83 °F 83 °F 100 °F (1925)
Min Temperature 69 °F 64 °F 46 °F (1984)
Degree Days  
Heating Degree Days 0 0  
Month to date heating degree days 0 0  
Since 1 July heating degree days 0 1  
Cooling Degree Days 11 8  
Month to date cooling degree days 102 64  
Year to date cooling degree days 1355 1326  
Growing Degree Days 26 (Base 50)    
Moisture  
Dew Point 67 °F    
Average Humidity 79    
Maximum Humidity 100    
Minimum Humidity 58    
Precipitation  
Precipitation 0.00 in 0.16 in 3.27 in (1987)
Month to date precipitation 1.65 1.06  
Year to date precipitation 27.53 29.85  
Sea Level Pressure  
Sea Level Pressure 30.03 in    
Wind  
Wind Speed 10 mph (NE)    
Max Wind Speed 20 mph    
Max Gust Speed 25 mph    
Visibility 10 miles    
Events      
T = Trace of Precipitation, MM = Missing Value Source: NWS Daily Summary

Daily Weather History Graph

Daily Weather History Graph

Search for Another Location

Airport or City:

Trip Planner

Search our weather history database for the weather conditions in past years. The results will help you decide how hot, cold, wet, or windy it might be!

Date:

Astronomy

Sep. 07, 2014 Rise Set
Actual Time 6:56 AM EDT 7:38 PM EDT
Civil Twilight 6:30 AM EDT 8:04 PM EDT
Nautical Twilight 5:59 AM EDT 8:35 PM EDT
Astronomical Twilight 5:27 AM EDT 9:06 PM EDT
Moon 6:36 PM EDT (9/7) 5:09 AM EDT (9/7)
Length of Visible Light 13h 34m
Length of Day
12h 42m
Waxing Gibbous, 97% of the Moon is Illuminated
Sep 7
Waxing Gibbous
Sep 8
Full
Sep 15
Last Quarter
Sep 24
New
Oct 1
First Quarter

Hourly Weather History & Observations

Time (EDT) Temp. Heat Index Dew Point Humidity Pressure Visibility Wind Dir Wind Speed Gust Speed Precip Events Conditions
12:54 AM 71.1 °F - 69.1 °F 93% 29.97 in 10.0 mi Calm Calm - N/A   Mostly Cloudy
1:54 AM 70.0 °F - 68.0 °F 93% 29.96 in 10.0 mi Calm Calm - N/A   Scattered Clouds
2:54 AM 69.1 °F - 68.0 °F 96% 29.96 in 10.0 mi WNW 3.5 mph - N/A   Partly Cloudy
3:54 AM 70.0 °F - 69.1 °F 97% 29.97 in 10.0 mi Calm Calm - N/A   Mostly Cloudy
4:54 AM 70.0 °F - 69.1 °F 97% 29.98 in 10.0 mi NW 3.5 mph - N/A   Mostly Cloudy
5:54 AM 69.1 °F - 68.0 °F 96% 29.98 in 10.0 mi Calm Calm - N/A   Mostly Cloudy
7:54 AM 70.0 °F - 66.9 °F 90% 30.02 in 10.0 mi North 4.6 mph - N/A   Mostly Cloudy
8:54 AM 73.0 °F - 66.9 °F 81% 30.04 in 10.0 mi NNE 9.2 mph 17.3 mph N/A   Scattered Clouds
9:25 AM 73.4 °F - 68.0 °F 83% 30.07 in 10.0 mi NE 10.4 mph - N/A   Mostly Cloudy
9:54 AM 73.0 °F - 68.0 °F 84% 30.06 in 10.0 mi NNE 9.2 mph 17.3 mph N/A   Overcast
10:54 AM 75.9 °F - 68.0 °F 76% 30.07 in 10.0 mi NE 12.7 mph - N/A   Overcast
11:32 AM 78.8 °F - 69.8 °F 74% 30.10 in 10.0 mi NE 10.4 mph - N/A   Mostly Cloudy
11:48 AM 78.8 °F - 69.8 °F 74% 30.10 in 10.0 mi ENE 12.7 mph 25.3 mph N/A   Mostly Cloudy
11:54 AM 79.0 °F - 69.1 °F 72% 30.06 in 10.0 mi East 12.7 mph 25.3 mph N/A   Mostly Cloudy
12:54 PM 79.0 °F - 66.9 °F 66% 30.06 in 10.0 mi ENE 13.8 mph - N/A   Mostly Cloudy
1:54 PM 80.1 °F 82.3 °F 66.9 °F 64% 30.05 in 10.0 mi ENE 10.4 mph - N/A   Mostly Cloudy
2:54 PM 82.0 °F 84.9 °F 68.0 °F 62% 30.03 in 10.0 mi ENE 15.0 mph - N/A   Mostly Cloudy
3:54 PM 82.0 °F 84.1 °F 66.0 °F 58% 30.02 in 10.0 mi East 13.8 mph - N/A   Mostly Cloudy
4:54 PM 82.0 °F 84.5 °F 66.9 °F 60% 30.01 in 10.0 mi ENE 15.0 mph - N/A   Mostly Cloudy
5:54 PM 79.0 °F - 66.9 °F 66% 30.03 in 10.0 mi NE 13.8 mph - N/A   Mostly Cloudy
6:54 PM 77.0 °F - 66.0 °F 69% 30.05 in 10.0 mi ENE 18.4 mph - N/A   Mostly Cloudy
7:54 PM 75.0 °F - 66.0 °F 73% 30.05 in 10.0 mi ENE 15.0 mph - N/A   Mostly Cloudy
8:54 PM 73.9 °F - 66.0 °F 76% 30.07 in 10.0 mi ENE 12.7 mph - N/A   Overcast
9:54 PM 73.0 °F - 66.0 °F 79% 30.10 in 10.0 mi East 11.5 mph - N/A   Overcast
10:54 PM 72.0 °F - 64.9 °F 78% 30.10 in 10.0 mi ENE 9.2 mph - N/A   Overcast